[[{"header":{"parameterUnit":"m.s-1","parameterCategory":1,"la1":30.2991,"la2":30.254,"lo1":-89.0895,"lo2":-89.0444,"dy":0.0017,"dx":0.0017,"nx":28,"ny":28,"refTime":"2023-10-17T21:00:00:Z","depth":0,"parameterNumber":2,"parameterNumberName":"U-component_of_WINDS"},"data":[0,0,0,0,0,0,0,0,0,0,0,0,0,0,0,0,0,0,0,0,0,0,0,0,0,0,0,0,0,0,0,0,0,0,0,0,0,0,0,0,0,0,0,0,0,0,0,0,0,0,0,0,0,0,0,0,0,0,-0.7388,-0.7388,0,-0.7381,-0.7381,-0.7381,-0.7338,-0.7337,-0.7336,-0.7335,-0.733,-0.7331,-0.7332,0,0,0,0,0,0,0,0,0,0,0,0,0,-0.7364,-0.7365,-0.7388,-0.7388,-0.7388,-0.7381,-0.7381,-0.7381,-0.7339,-0.7337,-0.7336,-0.7335,-0.733,-0.7331,-0.7332,0,0,0,0,0,0,0,0,0,0,0,0,0,-0.7368,-0.7365,-0.7388,-0.7366,-0.7364,-0.7381,-0.7381,-0.7381,-0.7339,-0.7337,-0.7336,-0.7334,-0.733,-0.7331,-0.7332,-0.7371,0,0,-0.7336,-0.7336,0,0,0,0,0,0,0,0,-0.7368,-0.7369,-0.7369,-0.7367,-0.7365,-0.7359,-0.7371,-0.7378,-0.7339,-0.7348,-0.7335,-0.7334,-0.7341,-0.7341,-0.7344,-0.7371,-0.7371,-0.7336,-0.7337,-0.7337,-0.7338,0,0,0,0,0,0,0,-0.7367,-0.7369,-0.7385,-0.7369,-0.7367,-0.7356,-0.7355,-0.7372,-0.7354,-0.7347,-0.7344,-0.7344,-0.734,-0.7343,-0.7343,-0.7371,-0.7336,-0.7337,-0.7338,-0.7338,-0.743,-0.7432,0,0,0,0,0,0,-0.737,-0.7369,-0.7386,-0.7385,-0.7362,-0.7358,-0.7357,-0.7363,-0.7353,-0.735,-0.7345,-0.7342,-0.7341,-0.7342,-0.7343,-0.7389,-0.7337,-0.7338,-0.7339,-0.7429,-0.7431,-0.7432,0,0,0,0,0,0,-0.737,-0.7372,-0.7386,-0.7376,-0.7377,-0.736,-0.7367,-0.7363,-0.7366,-0.7352,-0.7348,-0.7352,-0.734,-0.7341,-0.7365,-0.7388,-0.7339,-0.734,-0.7427,-0.7429,-0.7432,-0.7481,0,0,0,0,0,0,-0.7369,-0.7372,-0.7387,-0.7377,-0.7378,-0.7407,-0.7368,-0.7364,-0.7368,-0.7364,-0.7357,-0.7354,-0.7339,-0.7363,-0.7366,-0.7389,-0.7341,-0.7424,-0.7428,-0.7431,-0.7477,-0.7485,-0.7491,0,0,0,0,0,-0.7369,-0.7401,-0.7388,-0.739,-0.7396,-0.7409,-0.7409,-0.7391,-0.737,-0.7385,-0.7376,-0.7354,-0.7385,-0.7366,-0.7369,-0.7392,-0.7423,-0.7427,-0.7431,-0.7474,-0.7483,-0.7491,0,0,0,0,0,0,-0.7415,-0.7399,-0.7384,-0.7415,-0.7413,-0.7402,-0.742,-0.7401,-0.7406,-0.7402,-0.7379,-0.7378,-0.7405,-0.7401,-0.738,-0.743,-0.74,-0.7405,-0.7432,-0.7441,-0.7448,-0.7449,-0.7342,0,0,0,0,0,-0.7429,-0.744,-0.7426,-0.7454,-0.7454,-0.7437,-0.7442,-0.7428,-0.7426,-0.7425,-0.7418,-0.7417,-0.7426,-0.7433,-0.7441,-0.7476,-0.7474,-0.7493,-0.7501,-0.7506,-0.7511,-0.753,-0.7539,-0.7445,-0.7445,-0.7445,0,0,-0.7457,-0.745,-0.7459,-0.7463,-0.7461,-0.7474,-0.7437,-0.7452,-0.7462,-0.7428,-0.745,-0.7444,-0.7441,-0.7471,-0.7484,-0.7468,-0.7537,-0.7511,-0.7516,-0.7518,-0.7535,-0.7544,-0.7552,-0.7448,-0.7447,-0.7447,0,0,-0.7516,-0.7512,-0.7535,-0.7533,-0.7529,-0.7517,-0.7523,-0.7514,-0.7508,-0.753,-0.7504,-0.7515,-0.7532,-0.7531,-0.7533,-0.7591,-0.7572,-0.7594,-0.7632,-0.7651,-0.7658,-0.7665,-0.7687,-0.7695,-0.7599,-0.7599,-0.7599,0,-0.7553,-0.7571,-0.7549,-0.7566,-0.7569,-0.7538,-0.7561,-0.756,-0.756,-0.7562,-0.7545,-0.7565,-0.7561,-0.759,-0.7604,-0.7607,-0.7613,-0.7596,-0.7659,-0.7665,-0.7671,-0.7692,-0.77,-0.7602,-0.7601,-0.7601,-0.7601,0,-0.7616,-0.763,-0.7649,-0.7648,-0.7653,-0.7674,-0.7655,-0.7662,-0.7647,-0.7638,-0.766,-0.7654,-0.766,-0.7665,-0.7651,-0.7693,-0.7684,-0.7663,-0.7633,-0.7683,-0.7702,-0.771,-0.7606,-0.7605,-0.7604,-0.7603,0,0,-0.7706,-0.7693,-0.77,-0.77,-0.7693,-0.7703,-0.7722,-0.7727,-0.7735,-0.7735,-0.7751,-0.7765,-0.7745,-0.7748,-0.7732,-0.7749,-0.7796,-0.7726,-0.7725,-0.774,-0.7843,-0.786,-0.787,-0.7783,-0.7784,-0.7785,-0.7844,0,-0.7764,-0.7796,-0.7776,-0.7811,-0.7823,-0.7792,-0.7809,-0.7807,-0.7798,-0.7807,-0.7797,-0.7808,-0.7781,-0.7782,-0.7797,-0.7788,-0.7817,-0.7783,-0.7799,-0.7799,-0.7802,-0.7879,-0.7897,-0.7953,-0.7851,-0.7852,-0.7853,0,-0.7836,-0.7839,-0.7875,-0.7866,-0.787,-0.7885,-0.7889,-0.7898,-0.7895,-0.7887,-0.7889,-0.787,-0.7888,-0.7857,-0.7882,-0.7859,-0.7864,-0.7861,-0.7862,-0.7865,-0.7831,-0.7885,-0.797,-0.798,-0.7865,-0.7864,-0.7863,0,-0.79,-0.7913,-0.7936,-0.7936,-0.7925,-0.7937,-0.7933,-0.7928,-0.7933,-0.7936,-0.7939,-0.7944,-0.7947,-0.7952,-0.7935,-0.7913,-0.7963,-0.793,-0.7958,-0.7958,-0.7971,-0.7971,-0.806,-0.7972,-0.7972,-0.7971,-0.7971,0,-0.7968,-0.7991,-0.7964,-0.7979,-0.8004,-0.7981,-0.8007,-0.8,-0.7996,-0.8009,-0.7982,-0.7995,-0.7971,-0.7981,-0.7968,-0.7991,-0.7993,-0.7988,-0.7984,-0.7991,-0.7992,-0.7995,-0.7992,-0.7974,-0.7973,-0.7973,-0.7972,0,-0.8044,-0.8027,-0.805,-0.8038,-0.8035,-0.8055,-0.8044,-0.8057,-0.8046,-0.8063,-0.8065,-0.8048,-0.8059,-0.8042,-0.8051,-0.8041,-0.8075,-0.8064,-0.8076,-0.8074,-0.8103,-0.8101,-0.8199,-0.8211,-0.8113,-0.8114,-0.8115,0,-0.8089,-0.8107,-0.8096,-0.8102,-0.81,-0.8111,-0.8115,-0.8092,-0.8098,-0.8096,-0.8109,-0.8118,-0.8123,-0.8142,-0.8131,-0.8138,-0.8128,-0.8162,-0.8129,-0.8136,-0.8131,-0.8131,-0.8133,-0.8169,-0.8171,-0.8171,-0.8172,0,-0.8172,-0.8162,-0.817,-0.8174,-0.818,-0.8182,-0.8182,-0.8189,-0.8165,-0.8173,-0.8184,-0.8188,-0.8197,-0.8206,-0.821,-0.8206,-0.8186,-0.8182,-0.8189,-0.8198,-0.8204,-0.8202,-0.8096,-0.8181,-0.818,-0.8179,-0.8179,-0.8178,-0.8235,-0.8249,-0.8244,-0.8253,-0.825,-0.8251,-0.8263,-0.8253,-0.8261,-0.8266,-0.8252,-0.8266,-0.8262,-0.8265,-0.8264,-0.8275,-0.826,-0.827,-0.8273,-0.8276,-0.8282,-0.8201,-0.8275,-0.8275,-0.8275,-0.8274,-0.8274,0,-0.8318,-0.8313,-0.8321,-0.8322,-0.8329,-0.8308,-0.8307,-0.8314,-0.8327,-0.8325,-0.8331,-0.8343,-0.8351,-0.834,-0.8347,-0.8358,-0.8349,-0.836,-0.836,-0.836,-0.8294,-0.8287,-0.8368,-0.8368,-0.8368,-0.8368,-0.8368,-0.8368,-0.8362,-0.8385,-0.8375,-0.8396,-0.8391,-0.8404,-0.8405,-0.8406,-0.8404,-0.8419,-0.8426,-0.8418,-0.8412,-0.8418,-0.8425,-0.8422,-0.8426,-0.8442,-0.8435,-0.8374,-0.8365,-0.8356,-0.835,-0.8442,-0.8442,-0.8501,-0.8501,-0.8502]},{"header":{"parameterUnit":"m.s-1","parameterCategory":1,"la1":30.2991,"la2":30.254,"lo1":-89.0895,"lo2":-89.0444,"dy":0.0017,"dx":0.0017,"nx":28,"ny":28,"refTime":"2023-10-17T21:00:00:Z","depth":0,"parameterNumber":3,"parameterNumberName":"V-component_of_WINDS"},"data":[0,0,0,0,0,0,0,0,0,0,0,0,0,0,0,0,0,0,0,0,0,0,0,0,0,0,0,0,0,0,0,0,0,0,0,0,0,0,0,0,0,0,0,0,0,0,0,0,0,0,0,0,0,0,0,0,0,0,-3.1141,-3.1141,0,-3.1178,-3.1179,-3.1179,-3.1125,-3.1123,-3.1121,-3.112,-3.1155,-3.1158,-3.1161,0,0,0,0,0,0,0,0,0,0,0,0,0,-3.1019,-3.1022,-3.1141,-3.1141,-3.1142,-3.1178,-3.1179,-3.1179,-3.1126,-3.1123,-3.1121,-3.1119,-3.1154,-3.1158,-3.1161,0,0,0,0,0,0,0,0,0,0,0,0,0,-3.1066,-3.1023,-3.114,-3.1119,-3.1118,-3.1178,-3.1179,-3.118,-3.1126,-3.1123,-3.112,-3.1118,-3.1153,-3.1157,-3.1161,-3.1244,0,0,-3.1174,-3.1176,0,0,0,0,0,0,0,0,-3.1063,-3.107,-3.1122,-3.1121,-3.1119,-3.1144,-3.1149,-3.1201,-3.1127,-3.1123,-3.112,-3.1116,-3.1154,-3.1158,-3.1171,-3.1245,-3.1247,-3.1174,-3.1177,-3.1178,-3.118,0,0,0,0,0,0,0,-3.106,-3.1068,-3.1155,-3.1123,-3.1121,-3.1107,-3.111,-3.1159,-3.1154,-3.1123,-3.1119,-3.1125,-3.1152,-3.1167,-3.1171,-3.1247,-3.1174,-3.1178,-3.118,-3.1182,-3.1392,-3.1395,0,0,0,0,0,0,-3.106,-3.1066,-3.1154,-3.1157,-3.1084,-3.1111,-3.1115,-3.1139,-3.1153,-3.1152,-3.1127,-3.1122,-3.1161,-3.1167,-3.1172,-3.1271,-3.1178,-3.1182,-3.1184,-3.1389,-3.1393,-3.1396,0,0,0,0,0,0,-3.1058,-3.1068,-3.1153,-3.111,-3.112,-3.1117,-3.1144,-3.1141,-3.1156,-3.1156,-3.1155,-3.1143,-3.1159,-3.1167,-3.1227,-3.1271,-3.1184,-3.1188,-3.1386,-3.139,-3.1395,-3.1468,0,0,0,0,0,0,-3.1054,-3.1068,-3.11,-3.1112,-3.1123,-3.1208,-3.1146,-3.1144,-3.1163,-3.1157,-3.1171,-3.117,-3.1158,-3.1221,-3.1231,-3.1275,-3.1191,-3.1382,-3.1388,-3.1393,-3.1462,-3.1475,-3.1486,0,0,0,0,0,-3.105,-3.1118,-3.1101,-3.1112,-3.1162,-3.121,-3.1216,-3.1202,-3.1167,-3.1199,-3.1199,-3.117,-3.1265,-3.1228,-3.1238,-3.1285,-3.1379,-3.1386,-3.1393,-3.1456,-3.1472,-3.1486,0,0,0,0,0,0,-3.1109,-3.1119,-3.1101,-3.1174,-3.1192,-3.1201,-3.124,-3.1219,-3.1245,-3.1238,-3.1218,-3.1221,-3.1286,-3.1291,-3.125,-3.1366,-3.1316,-3.1325,-3.136,-3.1376,-3.1387,-3.1385,-3.1194,0,0,0,0,0,-3.1131,-3.117,-3.1176,-3.124,-3.125,-3.1244,-3.1264,-3.1251,-3.1268,-3.1275,-3.128,-3.1297,-3.133,-3.1353,-3.1384,-3.1462,-3.1464,-3.1499,-3.1511,-3.1521,-3.153,-3.1573,-3.1589,-3.142,-3.142,-3.142,0,0,-3.1176,-3.1186,-3.1212,-3.1252,-3.1264,-3.1305,-3.1251,-3.1295,-3.1325,-3.1281,-3.134,-3.1344,-3.1361,-3.1431,-3.1462,-3.1437,-3.1577,-3.153,-3.1538,-3.1541,-3.1582,-3.1598,-3.1612,-3.1425,-3.1424,-3.1423,0,0,-3.1279,-3.129,-3.1346,-3.136,-3.138,-3.1376,-3.1389,-3.1402,-3.1403,-3.1461,-3.143,-3.1465,-3.1523,-3.1537,-3.1552,-3.1662,-3.1636,-3.1672,-3.1736,-3.1778,-3.1792,-3.1803,-3.1844,-3.1859,-3.1681,-3.1681,-3.1681,0,-3.1333,-3.1394,-3.1377,-3.1425,-3.1444,-3.1408,-3.1464,-3.1478,-3.1506,-3.152,-3.1492,-3.1565,-3.1574,-3.1648,-3.1675,-3.1688,-3.1703,-3.1671,-3.1791,-3.1803,-3.1813,-3.1852,-3.1867,-3.1685,-3.1685,-3.1684,-3.1684,0,-3.1459,-3.1501,-3.1544,-3.1574,-3.1598,-3.1649,-3.1641,-3.1666,-3.1652,-3.165,-3.171,-3.172,-3.1753,-3.1769,-3.1754,-3.1841,-3.1825,-3.1795,-3.1744,-3.1834,-3.187,-3.1885,-3.1692,-3.169,-3.1689,-3.1688,0,0,-3.16,-3.1622,-3.1638,-3.1652,-3.1672,-3.1704,-3.1754,-3.1788,-3.1811,-3.1832,-3.1874,-3.1924,-3.1897,-3.1913,-3.19,-3.1937,-3.2025,-3.1901,-3.1901,-3.1925,-3.2123,-3.2148,-3.2165,-3.2008,-3.2011,-3.2013,-3.2122,0,-3.1705,-3.1793,-3.1781,-3.1865,-3.1905,-3.1872,-3.1915,-3.1932,-3.1932,-3.1965,-3.1964,-3.2002,-3.1961,-3.1972,-3.2006,-3.2007,-3.2065,-3.1999,-3.2047,-3.2049,-3.2046,-3.2183,-3.2209,-3.2312,-3.2136,-3.2138,-3.214,0,-3.1838,-3.1867,-3.1956,-3.1971,-3.1987,-3.2027,-3.2058,-3.209,-3.2108,-3.2105,-3.2125,-3.2105,-3.2155,-3.2103,-3.2172,-3.2128,-3.2146,-3.215,-3.2153,-3.2158,-3.2101,-3.2194,-3.2344,-3.236,-3.2162,-3.216,-3.2158,0,-3.1935,-3.1994,-3.2056,-3.2069,-3.2088,-3.2117,-3.2126,-3.2141,-3.2163,-3.2189,-3.2203,-3.2234,-3.2251,-3.2275,-3.2265,-3.2228,-3.2336,-3.2283,-3.2335,-3.2336,-3.2361,-3.236,-3.2518,-3.237,-3.237,-3.237,-3.237,0,-3.2054,-3.211,-3.21,-3.2138,-3.2201,-3.2185,-3.2247,-3.2251,-3.2266,-3.2304,-3.2276,-3.2312,-3.2295,-3.2329,-3.2321,-3.238,-3.2387,-3.2387,-3.2384,-3.239,-3.2391,-3.2403,-3.2396,-3.2374,-3.2373,-3.2372,-3.2372,0,-3.2172,-3.2168,-3.2233,-3.2247,-3.2251,-3.2297,-3.2307,-3.2343,-3.2341,-3.239,-3.24,-3.2397,-3.2437,-3.2428,-3.2471,-3.2465,-3.254,-3.2527,-3.2535,-3.2532,-3.2586,-3.2582,-3.2759,-3.2782,-3.2619,-3.262,-3.2622,0,-3.2249,-3.2292,-3.2311,-3.2335,-3.2347,-3.2386,-3.2409,-3.2395,-3.2419,-3.2444,-3.2477,-3.2514,-3.2544,-3.2608,-3.261,-3.2643,-3.2632,-3.2691,-3.2636,-3.2642,-3.2634,-3.2633,-3.2638,-3.2703,-3.2705,-3.2706,-3.2707,0,-3.2387,-3.2383,-3.2417,-3.2452,-3.248,-3.2505,-3.2528,-3.2549,-3.2537,-3.2566,-3.2607,-3.263,-3.2675,-3.2713,-3.2744,-3.2752,-3.2729,-3.2725,-3.2739,-3.2747,-3.275,-3.2751,-3.2566,-3.2721,-3.272,-3.2719,-3.2718,-3.2717,-3.2488,-3.2526,-3.2545,-3.2584,-3.2601,-3.2623,-3.2658,-3.2661,-3.2696,-3.2733,-3.2722,-3.2769,-3.2786,-3.2826,-3.2838,-3.2874,-3.2851,-3.2871,-3.2877,-3.2883,-3.289,-3.2743,-3.2879,-3.2879,-3.2878,-3.2878,-3.2878,0,-3.2626,-3.2637,-3.2674,-3.2708,-3.2739,-3.2715,-3.2739,-3.2766,-3.2809,-3.2828,-3.2858,-3.2906,-3.2943,-3.2948,-3.2982,-3.3011,-3.3001,-3.302,-3.3019,-3.3021,-3.2907,-3.2893,-3.3028,-3.3028,-3.3028,-3.3028,-3.3028,-3.3028,-3.2701,-3.2764,-3.2763,-3.2833,-3.2843,-3.2891,-3.2907,-3.2928,-3.2943,-3.2998,-3.303,-3.3033,-3.3046,-3.3082,-3.3115,-3.3115,-3.313,-3.3154,-3.315,-3.3044,-3.3029,-3.3015,-3.3001,-3.3157,-3.3157,-3.3261,-3.3262,-3.3263]}]]